This is the latest recevied weather packets stored in our database for station/object KI5GCD-13. If no packets are shown the sender has not sent any weather packets the latest 10 day(s).
| Time | Temp. | Humidity | Pressure | Rain* | Wind** | Luminosity | Snow |
|---|---|---|---|---|---|---|---|
| 1777895087 | 15.56° C | 69% | 1006.2 hPa | 0 mm | 1.79 m/s, 245° | - | - |
| 1777894787 | 15.56° C | 69% | 1006 hPa | 0 mm | 0.45 m/s, 235° | - | - |
| 1777894487 | 16.11° C | 68% | 1006 hPa | 0 mm | 1.79 m/s, 222° | - | - |
| 1777894187 | 15.56° C | 69% | 1006 hPa | 0 mm | 2.68 m/s, 189° | - | - |
| 1777893887 | 16.11° C | 68% | 1006 hPa | 0 mm | 0.89 m/s, 252° | - | - |
| 1777893587 | 16.11° C | 68% | 1006 hPa | 0 mm | 0.89 m/s, 212° | - | - |
| 1777893287 | 16.11° C | 68% | 1005.9 hPa | 0 mm | 0.89 m/s, 227° | - | - |
| 1777892987 | 16.11° C | 68% | 1006.2 hPa | 0 mm | 0.89 m/s, 256° | - | - |
| 1777892687 | 16.11° C | 68% | 1006.3 hPa | 0 mm | 0.89 m/s, 164° | - | - |
| 1777892387 | 16.11° C | 68% | 1006.4 hPa | 0 mm | 0 m/s | - | - |
| 1777892087 | 16.11° C | 68% | 1006.3 hPa | 0 mm | 0.89 m/s, 216° | - | - |
| 1777891787 | 16.11° C | 67% | 1006.4 hPa | 0 mm | 1.79 m/s, 201° | - | - |
| 1777891487 | 16.11° C | 67% | 1006.3 hPa | 0 mm | 0.45 m/s, 200° | - | - |
| 1777891187 | 16.11° C | 67% | 1006.2 hPa | 0 mm | 0.45 m/s, 247° | - | - |
| 1777890887 | 16.11° C | 66% | 1006.3 hPa | 0 mm | 0.89 m/s, 228° | - | - |
| 1777890587 | 16.11° C | 67% | 1006 hPa | 0 mm | 0.45 m/s, 164° | - | - |
| 1777890287 | 16.67° C | 66% | 1006.4 hPa | 0 mm | 0.89 m/s, 219° | - | - |
| 1777889987 | 16.67° C | 66% | 1006.4 hPa | 0 mm | 0.89 m/s, 202° | - | - |
| 1777889687 | 16.67° C | 65% | 1006.4 hPa | 0 mm | 1.34 m/s, 262° | - | - |
| 1777889387 | 16.67° C | 65% | 1006.4 hPa | 0 mm | 0.89 m/s, 220° | - | - |
| 1777889087 | 16.67° C | 65% | 1006.6 hPa | 0 mm | 0.89 m/s, 246° | - | - |
| 1777888787 | 16.67° C | 66% | 1006.8 hPa | 0 mm | 0.45 m/s, 213° | - | - |
| 1777888487 | 16.67° C | 66% | 1006.8 hPa | 0 mm | 0 m/s | - | - |
| 1777888187 | 16.67° C | 67% | 1006.8 hPa | 0 mm | 0.45 m/s, 179° | - | - |
| 1777887887 | 16.67° C | 65% | 1006.9 hPa | 0 mm | 1.34 m/s, 202° | - | - |
* Rain latest hour (hover to see other rain measurements)
** Current wind speed in m/s (hover to see current wind gust speed)